Location: Overspoor
(51.4747°N, 5.6641°E)
Time: 21:10:32
(UTC+02:00)

NANOSAT C BR1 - Pass Details

Date: 01 July 2022
Orbit: 584 x 599 km, 98.0° (Epoch: 08 August)

Event Time Altitude Azimuth Distance (km) Brightness Sun altitude
Rises 03:09:22 0° 22° (NNE) 2,850 ? -12.9°
Reaches altitude 10° 03:11:45 10° 33° (NNE) 1,945 ? -12.8°
Maximum altitude 03:15:31 31° 96° (E) 1,070 ? -12.6°
Drops below altitude 10° 03:19:15 10° 158° (SSE) 1,937 ? -12.4°
Enters shadow 03:19:22 10° 159° (SSE) 1,975 ? -12.4°
